Regional Weather Roundup
Issued by NWS

Home | Current Version | Previous Version | Graphics & Text | Print | Product List | Glossary Off
Versions: 1 2 3 4 5 6 7 8 9 10 11 12 13 14 15 16 17 18 19 20 21 22 23 24 25 26 27 28 29 30 31 32 33 34 35 36 37 38 39 40 41 42 43 44 45 46 47 48 49 50

000
ASUS43 KMKX 251621
RWRWI

WISCONSIN REGIONAL WEATHER ROUNDUP
NATIONAL WEATHER SERVICE MILWAUKEE/SULLIVAN WI
1000 AM CST SAT FEB 25 2017

NOTE: "FAIR" INDICATES FEW OR NO CLOUDS BELOW 12,000 FEET WITH NO
SIGNIFICANT WEATHER AND/OR OBSTRUCTIONS TO VISIBILITY.

WIZ001-002-006>008-014>016-023>028-251700-
NORTHWEST WISCONSIN

CITY           SKY/WX    TMP DP  RH WIND       PRES   REMARKS
SUPERIOR ARPT  SUNNY     17   4  56 NW7       29.89S WCI   7
ASHLAND        CLOUDY    16   8  71 NW12      29.82R WCI   3
HAYWARD        MOSUNNY   15   3  59 NW9G20    29.82S WCI   3
SIREN          SUNNY     17   2  52 NW6       29.89F WCI   9
CUMBERLAND     SUNNY     18   3  53 NW16      29.85S WCI   3
RICE LAKE      SUNNY     16   3  56 NW7G18    29.88S WCI   6
CHETEK         SUNNY     16   4  60 NW6       29.86F WCI   7
LADYSMITH      CLOUDY    13   5  70 NW16G22   29.83R HAZE    WCI  -4
EAU CLAIRE     MIX PCPN  15   4  61 NW13      29.88R WCI   1
MENOMONIE      SUNNY     17   4  56 W15       29.90R WCI   2
NEW RICHMOND   SUNNY     19   4  50 N13       29.91F WCI   7
OSCEOLA        SUNNY     20   3  48 NW8       29.95F WCI  10
$$

WIZ003>005-009-010-017-018-251700-
NORTH CENTRAL WISCONSIN

CITY           SKY/WX    TMP DP  RH WIND       PRES   REMARKS
MANITOWISH WTR LGT SNOW  12   9  87 W14G21    29.69R WCI  -3
ARBOR VITAE    LGT SNOW  17  11  79 NW12G24     N/A  WCI   4
WOODRUFF       LGT SNOW  17  11  79 NW12G24     N/A  WCI   4
RHINELANDER    LGT SNOW  15   8  73 NW13G23   29.67R WCI   1
EAGLE RIVER    LGT SNOW  16   9  74 NW17G24   29.64R WCI   0
LAND O LAKES   LGT SNOW  17  11  80 NW17G24   29.65R WCI   1
PHILLIPS       LGT SNOW  12   6  77 W10G16    29.74R WCI  -1
TOMAHAWK       LGT SNOW  13   8  78 W14G22    29.71S WCI  -2
MEDFORD        CLOUDY    12   5  73 NW13G18   29.75R HAZE    WCI  -3
MERRILL        NOT AVBL
$$

WIZ029-030-035-036-043>047-251700-
CENTRAL WISCONSIN

CITY           SKY/WX    TMP DP  RH WIND       PRES   REMARKS
WAUSAU         CLOUDY    15   8  73 NW17G24   29.73R WCI  -1
MOSINEE        LGT SNOW  16   9  73 W17G24    29.75R WCI   0
MARSHFIELD     FLURRIES  13   5  70 NW17      29.77R WCI  -4
STEVENS POINT  CLOUDY    14   6  71 NW12G20   29.77R WCI   0
WAUPACA        CLOUDY    20  10  65 W14G21    29.76S WCI   7
WAUTOMA        CLOUDY    17   9  70 W21G28    29.80R WCI   0
WISC RAPIDS    CLOUDY    16   7  67 NW12      29.80S WCI   3
CAMP DOUGLAS   PTSUNNY   14   7  73 NW14      29.84R WCI  -1
$$

WIZ011>013-019>022-031-037>040-048>050-251700-
NORTHEAST WISCONSIN

CITY           SKY/WX    TMP DP  RH WIND       PRES   REMARKS
ANTIGO         LGT SNOW  14   8  78 NW17G25   29.67R WCI  -3
SHAWANO        CLOUDY    22  13  67 CALM      29.71R
OCONTO         CLOUDY    19  15  82 W13G18    29.68R WCI   7
STURGEON BAY   MIX PCPN  22  17  81 W15G22    29.66R WCI   9
GREEN BAY      LGT SNOW  20  15  81 W20       29.71R WCI   4
MANITOWOC      FLURRIES  20  14  77 W20G26    29.70R WCI   4
APPLETON       PTSUNNY   19   9  63 W14       29.71R WCI   6
CLINTONVILLE   CLOUDY    19  10  68 NW21      29.72R WCI   3
OSHKOSH        LGT SNOW  17  10  74 W15G25    29.74R WCI   2
$$

WIZ032>034-041-042-053>061-251700-
SOUTHWEST WISCONSIN

CITY           SKY/WX    TMP DP  RH WIND       PRES   REMARKS
LA CROSSE      SUNNY     20   8  60 NW21G29   29.90R WCI   4
SPARTA         MOSUNNY   17   9  69 NW15G28   29.88R HAZE    WCI   3
VIROQUA        PTSUNNY   17   9  69 NW13      29.84R WCI   4
BOSCOBEL       MOSUNNY   20   8  60 NW9G21    29.90R WCI   9
PRAIRIE DU CHI SUNNY     20   9  62 W15       29.92S WCI   7
PLATTEVILLE    SUNNY     18  12  79 W5        29.87S WCI  11
$$

WIZ056-057-062-063-064-067-068-251700-
SOUTH CENTRAL WISCONSIN

CITY           SKY/WX    TMP DP  RH WIND       PRES   REMARKS
REEDSBURG      CLOUDY    15   7  71 NW12G17   29.84R WCI   2
BARABOO/DELLS  CLOUDY    15   8  73 NW13G18   29.83R WCI   1
LONE ROCK      PTSUNNY   19   8  62 NW14G26   29.88R WCI   6
MINERAL POINT  PTSUNNY   19  14  79 W5        29.84R WCI  13
MADISON        FLURRIES  17   9  70 W12G22    29.82R WCI   4
MIDDLETON      CLOUDY    19  12  74 NW9       29.83R WCI   9
WATERTOWN      CLOUDY    17  10  75 W16G23    29.80R WCI   2
MONROE         CLOUDY    21  14  73 W13G23    29.83R WCI   9
JANESVILLE     PTSUNNY   21  12  68 NW21G26   29.82R WCI   6
$$

WIZ051-052-058>065-066-070>072-251700-
SOUTHEAST WISCONSIN

CITY           SKY/WX    TMP DP  RH WIND       PRES   REMARKS
MILWAUKEE      FLURRIES  23  12  62 NW16G26   29.77R WCI  10
WAUKESHA       CLOUDY    18  10  73 W20G30    29.78R WCI   1
MILWAUKEE/TIMM LGT SNOW  19  10  68 NW22G28   29.77R WCI   3
RACINE         CLOUDY    22  12  65 NW15G24   29.79R WCI   9
KENOSHA        CLOUDY    22  13  68 W20       29.78R WCI   7
FOND DU LAC    MIX PCPN  18   8  65 W16G26    29.76R WCI   3
SHEBOYGAN      MIX PCPN  19  11  70 W15G26    29.73R WCI   5
WEST BEND      LGT SNOW  19  14  79 W8        29.75R WCI   9
JUNEAU         CLOUDY    15   9  75 W6        29.79R WCI   6
$$

LSZ147-162-251700-
LAKE SUPERIOR

STATION/POSITION TIME  TEMP    WIND        PRES    WAVE
                       AIR SEA DIR/SP/G            HT/PER
                 (UTC) (F)     (DEG/KT/KT) (MB)    (FT/S)
DEVILS ISLAND    1600   16     300/ 13/ 15 1010.2S
PORT WING        1540   17     310/ 16/ 22 1010.8S
SAXON HARBOR     1540   17     290/  8/ 15 1008.8R
$$

LMZ867-665-643>646-251700-
LAKE MICHIGAN

STATION/POSITION TIME  TEMP    WIND        PRES    WAVE
                       AIR SEA DIR/SP/G            HT/PER
                 (UTC) (F)     (DEG/KT/KT) (MB)    (FT/S)
CHAMBERS ISLAND  1540   21     260/  1/  2 1003.4R
NORTHPORT PIER   1612   21     300/  1/  3 1003.0S
SISTER BAY       1520   21        CALM       N/A
KEWAUNEE LAKESHO 1554   21     290/  5/ 20 1004.3R
SHEBOYGAN LAKESH 1600   19     290/ 13/ 14 1007.6R
PORT WASHINGTON  1440   21     300/ 12/ 20 1007.5R
MILWAUKEE LAKESH 1600   21     300/ 17/ 21   N/A
KENOSHA   LAKESH 1600   22     300/ 17/ 21 1008.8
$$

TC  - TEMPERATURE IN CELSIUS
VSB - VISIBILITY IN STATUTE MILES
WCI - WIND CHILL INDEX
HX  - HEAT INDEX





USA.gov is the U.S. government's official web portal to all federal, state and local government web resources and services.